Погода в Памуккале

Турция     37°54′59″N   29°06′45″E
темп.,
°C
ветер,
м/с
пор.,
м/с
влажн.,
%
обл.,
%
осадки,
мм/ч
давл.,
гПа
погр.,
м
17 мая, пн
пн1700:00+15с22590 0.0 101022
03:00+13с22660 0.0 101012
06:00+11с01755 0.0 101110
09:00+18ююз11514 0.0 1012617
12:00+23ююз12345 0.0 10111447
15:00+26ююз23275 0.0 10091894
18:00+27зюз55235 0.0 10082116
21:00+20з223916 0.0 101015
18 мая, вт
вт1800:00+16з224817 0.0 101117
03:00+15з11560 0.0 101111
06:00+14з11610 0.0 101111
09:00+21ююз12400 0.0 1012356
12:00+28зюз24245 0.0 10111566
15:00+31з68205 0.0 10092369
18:00+30зюз78235 0.0 10092228
21:00+22з334210 0.0 101119
19 мая, ср
ср1900:00+19с22505 0.0 101315
03:00+17ссв12615 0.0 101311
06:00+16св11680 0.0 101411
09:00+23ююз11450 0.0 1014575
12:00+28юз11250 0.0 10131313
15:00+31з13170 0.0 10101848
18:00+32з33150 0.0 10082047
21:00+24ссз33290 0.0 101023
20 мая, чт
чт2000:00+21зсз22370 0.0 101113
03:00+18з12490 0.0 101111
06:00+16зюз11590 0.0 101011
09:00+24юз11390 0.0 1010355
12:00+30зюз24235 0.0 10091387
15:00+33з56150 0.0 10072771
18:00+32з56160 0.0 10072130
21:00+23з22300 0.0 100814
21 мая, пт
пт2100:00+19зюз12420 0.0 101011
03:00+17з11485 0.0 101011
06:00+16всв01535 0.0 101011
09:00+24юз11295 0.0 1009297
12:00+31з12167 0.0 1007785
15:00+35зюз89146 0.0 10043497
18:00+32зюз79188 0.0 10042162
21:00+23ссз4438100 0.0 100648